Yuma, AZ

7:43 PM MST on February 11, 2016 (GMT -0700)
Yuma Marine Corps Air Station

Weather History for KNYL - February, 2014

Change the Weather History Date:

Wednesday, February 5, 2014

  Actual Average Record
Temperature  
Mean Temperature 62 °F 60 °F  
Max Temperature 71 °F 72 °F 90 °F (1963)
Min Temperature 53 °F 49 °F 33 °F (1956)
Degree Days  
Heating Degree Days 3 5  
Month to date heating degree days 43 25  
Since 1 July heating degree days 350 533  
Cooling Degree Days 0 1  
Month to date cooling degree days 0 4  
Year to date cooling degree days 16 10  
Growing Degree Days 12 (Base 50)    
Moisture  
Dew Point 37 °F    
Average Humidity 45    
Maximum Humidity 66    
Minimum Humidity 23    
Precipitation  
Precipitation 0.00 in 0.01 in 0.26 in (1890)
Month to date precipitation 0.00 0.06  
Year to date precipitation T 0.43  
Sea Level Pressure  
Sea Level Pressure 30.01 in    
Wind  
Wind Speed 3 mph (North)    
Max Wind Speed 10 mph    
Max Gust Speed 12 mph    
Visibility 10 miles    
Events      
T = Trace of Precipitation, MM = Missing Value Source: NWS Daily Summary

Daily Weather History Graph

Daily Weather History Graph

Search for Another Location

Airport or City:

Trip Planner

Search our weather history database for the weather conditions in past years. The results will help you decide how hot, cold, wet, or windy it might be!

Date:

Astronomy

Feb. 05, 2014 Rise Set
Actual Time 7:30 AM MST 6:15 PM MST
Civil Twilight 7:04 AM MST 6:40 PM MST
Nautical Twilight 6:35 AM MST 7:10 PM MST
Astronomical Twilight 6:06 AM MST 7:38 PM MST
Moon 11:11 AM MST (2/5) No Moon Set
Length of Visible Light 11h 36m
Length of Day
10h 45m
Waxing Crescent, 40% of the Moon is Illuminated
Feb 5
Waxing Crescent
Feb 6
First Quarter
Feb 14
Full
Feb 22
Last Quarter
Mar 1
New

Hourly Weather History & Observations

Time (MST) Temp. Dew Point Humidity Pressure Visibility Wind Dir Wind Speed Gust Speed Precip Events Conditions
12:57 AM 57.9 °F 36.0 °F 44% 30.03 in 10.0 mi Calm Calm - N/A   Mostly Cloudy
1:57 AM 55.9 °F 37.0 °F 49% 30.03 in 10.0 mi NNE 3.5 mph - N/A   Mostly Cloudy
2:57 AM 55.9 °F 39.9 °F 55% 30.03 in 10.0 mi North 4.6 mph - N/A   Mostly Cloudy
3:57 AM 55.9 °F 41.0 °F 57% 30.02 in 10.0 mi NE 4.6 mph - N/A   Scattered Clouds
4:57 AM 55.0 °F 43.0 °F 64% 30.00 in 10.0 mi ENE 5.8 mph - N/A   Mostly Cloudy
5:57 AM 55.9 °F 39.9 °F 55% 30.00 in 10.0 mi East 3.5 mph - N/A   Scattered Clouds
6:57 AM 55.9 °F 41.0 °F 57% 30.01 in 10.0 mi NNE 3.5 mph - N/A   Mostly Cloudy
7:57 AM 54.0 °F 42.1 °F 64% 30.02 in 10.0 mi NNW 3.5 mph - N/A   Mostly Cloudy
8:57 AM 55.9 °F 43.0 °F 62% 30.04 in 10.0 mi Calm Calm - N/A   Mostly Cloudy
9:57 AM 63.0 °F 37.9 °F 40% 30.06 in 10.0 mi North 3.5 mph - N/A   Mostly Cloudy
10:57 AM 64.9 °F 36.0 °F 34% 30.07 in 10.0 mi North 3.5 mph - N/A   Partly Cloudy
11:57 AM 66.9 °F 34.0 °F 30% 30.05 in 10.0 mi Variable 3.5 mph - N/A   Partly Cloudy
12:57 PM 68.0 °F 33.1 °F 27% 30.01 in 10.0 mi Variable 3.5 mph - N/A   Partly Cloudy
1:57 PM 70.0 °F 32.0 °F 25% 29.98 in 10.0 mi Variable 4.6 mph - N/A   Partly Cloudy
2:57 PM 70.0 °F 32.0 °F 25% 29.95 in 10.0 mi Calm Calm - N/A   Scattered Clouds
3:57 PM 70.0 °F 30.0 °F 23% 29.96 in 10.0 mi NNW 9.2 mph - N/A   Scattered Clouds
4:57 PM 70.0 °F 30.0 °F 23% 29.96 in 10.0 mi NW 8.1 mph - N/A   Partly Cloudy
5:57 PM 68.0 °F 33.1 °F 27% 29.97 in 10.0 mi West 5.8 mph - N/A   Scattered Clouds
6:57 PM 64.0 °F 35.1 °F 34% 29.97 in 10.0 mi West 6.9 mph - N/A   Scattered Clouds
7:57 PM 59.0 °F 36.0 °F 42% 29.99 in 10.0 mi Calm Calm - N/A   Scattered Clouds
8:57 PM 57.9 °F 36.0 °F 44% 30.00 in 10.0 mi Calm Calm - N/A   Clear
9:57 PM 57.0 °F 36.0 °F 45% 30.01 in 10.0 mi WNW 4.6 mph - N/A   Clear
10:57 PM 55.9 °F 36.0 °F 47% 30.02 in 10.0 mi South 3.5 mph - N/A   Clear
11:57 PM 53.1 °F 37.0 °F 55% 30.02 in 10.0 mi Calm Calm - N/A   Clear